PST,Max TemperatureF,Mean TemperatureF,Min TemperatureF,Max Dew PointF,MeanDew PointF,Min DewpointF,Max Humidity, Mean Humidity, Min Humidity, Max Sea Level PressureIn, Mean Sea Level PressureIn, Min Sea Level PressureIn, Max VisibilityMiles, Mean VisibilityMiles, Min VisibilityMiles, Max Wind SpeedMPH, Mean Wind SpeedMPH, Max Gust SpeedMPH,PrecipitationIn, CloudCover, Events, WindDirDegrees
2011-11-1,73,65,56,55,53,50,93,71,49,29.98,29.93,29.88,10,5,2,8,2,17,0.00,5,,153
2011-11-2,84,68,52,52,20,2,89,47,5,30.08,30.02,29.98,10,8,4,29,11,38,0.00,0,,73
2011-11-3,75,63,50,54,45,27,59,43,27,30.04,29.95,29.89,10,10,10,12,3,21,0.00,2,,196
2011-11-4,65,59,53,55,49,42,84,68,52,29.87,29.79,29.72,10,9,2,13,3,20,0.26,6,Rain,260
2011-11-5,66,55,43,45,41,38,89,63,37,30.04,29.97,29.84,10,10,10,12,2,16,0.00,0,,143
2011-11-6,64,56,47,49,45,40,83,70,56,30.05,30.01,29.95,10,8,2,13,5,41,0.18,5,Rain,75
2011-11-7,67,55,43,46,42,36,89,62,34,30.19,30.11,30.02,10,10,10,9,2,21,0.00,0,,162
2011-11-8,73,59,44,43,39,29,83,51,19,30.25,30.21,30.15,10,10,9,10,1,40,0.00,0,,104
2011-11-9,81,64,47,37,24,16,66,38,10,30.24,30.17,30.09,10,10,10,20,7,25,0.00,0,,76
2011-11-10,79,66,53,34,27,16,38,26,13,30.15,30.07,29.99,10,10,10,15,5,20,0.00,0,,85
2011-11-11,75,68,60,39,33,26,39,31,22,29.96,29.88,29.82,10,10,10,13,5,18,0.00,3,,127
2011-11-12,66,61,55,55,47,34,72,54,36,29.85,29.81,29.77,10,10,7,16,6,21,0.14,6,Rain,72
2011-11-13,77,65,53,52,49,47,83,62,41,29.96,29.89,29.83,10,10,10,10,2,15,0.00,1,,282
2011-11-14,69,60,51,55,51,46,83,73,63,30.01,29.96,29.91,10,10,10,10,3,15,0.00,4,,165
2011-11-15,71,66,61,52,51,49,72,62,51,30.08,30.04,29.99,10,8,6,10,4,20,0.00,4,,304
2011-11-16,73,63,53,54,51,48,89,69,49,30.15,30.10,30.05,6,4,2,8,1,30,0.00,4,,292
2011-11-17,72,61,50,56,53,46,93,73,53,30.10,30.02,29.97,4,3,2,9,2,13,0.00,3,,180
2011-11-18,63,60,57,54,51,50,86,76,65,30.00,29.95,29.91,10,7,2,7,2,15,0.00,7,,158
2011-11-19,66,59,51,52,48,45,89,71,52,29.97,29.93,29.89,10,10,8,13,4,18,0.01,4,,168
2011-11-20,60,55,50,54,50,44,83,73,62,30.00,29.95,29.90,10,7,1,17,6,23,0.41,7,Rain,108
2011-11-21,65,56,46,50,46,43,93,73,52,30.27,30.10,30.01,10,4,0,9,1,17,0.00,1,Fog,187
2011-11-22,73,59,44,50,45,41,92,64,35,30.27,30.19,30.09,10,9,5,7,1,15,0.00,0,,175
2011-11-23,69,58,46,53,49,42,86,70,53,30.07,30.00,29.94,10,9,7,8,2,23,0.00,2,,160
2011-11-24,67,60,52,50,48,45,89,69,48,30.11,30.03,29.97,10,8,4,8,2,20,0.00,4,,97
2011-11-25,70,59,47,52,48,43,86,64,42,30.23,30.17,30.12,10,9,6,9,2,18,0.00,0,,122
2011-11-26,87,66,45,49,40,24,92,51,10,30.28,30.23,30.18,10,9,4,7,1,22,0.00,0,,318
2011-11-27,89,70,50,37,29,21,50,30,9,30.27,30.20,30.15,10,10,10,15,3,21,0.00,0,,38
2011-11-28,81,66,51,45,37,31,59,38,16,30.13,30.09,30.04,10,10,10,8,1,23,0.00,0,,104
2011-11-29,81,67,52,50,44,37,71,47,23,30.08,30.03,29.99,10,10,7,6,0,12,0.00,0,,165
2011-11-30,69,58,47,54,48,41,89,68,46,30.03,29.88,29.76,10,9,7,10,2,23,0.00,3,,180